Time,TemperatureF,DewpointF,PressureIn,WindDirection,WindDirectionDegrees,WindSpeedMPH,WindSpeedGustMPH,Humidity,HourlyPrecipIn,Conditions,Clouds,dailyrainin,SolarRadiationWatts/m^2,SoftwareType,DateUTC
2013-03-03 00:01:00,34.0,33.0,-100.00,SSW,193,4.0,10.0,97,0.01,,,0.14,0.000000,,2013-03-03 08:01:00,
2013-03-03 00:11:00,34.0,33.0,-100.00,SSW,193,4.0,10.0,97,0.01,,,0.14,0.000000,,2013-03-03 08:11:00,
2013-03-03 00:42:00,33.0,32.0,-100.00,West,278,12.0,21.0,98,0.04,,,0.18,0.000000,,2013-03-03 08:42:00,
2013-03-03 00:54:00,33.0,32.0,-100.00,West,278,12.0,21.0,98,0.04,,,0.18,0.000000,,2013-03-03 08:54:00,
2013-03-03 01:01:00,33.0,32.0,-100.00,West,278,12.0,21.0,98,0.04,,,0.18,0.000000,,2013-03-03 09:01:00,
2013-03-03 01:11:00,33.0,32.0,-100.00,West,278,12.0,21.0,98,0.04,,,0.18,0.000000,,2013-03-03 09:11:00,
2013-03-03 01:32:00,31.0,31.0,-100.00,West,269,11.0,22.0,98,0.00,,,0.18,0.000000,,2013-03-03 09:32:00,
2013-03-03 01:42:00,31.0,31.0,-100.00,West,269,11.0,22.0,98,0.00,,,0.18,0.000000,,2013-03-03 09:42:00,
2013-03-03 01:52:00,31.0,31.0,-100.00,West,269,11.0,22.0,98,0.00,,,0.18,0.000000,,2013-03-03 09:52:00,
2013-03-03 02:01:00,31.0,31.0,-100.00,West,269,11.0,22.0,98,0.00,,,0.18,0.000000,,2013-03-03 10:01:00,
2013-03-03 02:11:00,31.0,31.0,-100.00,West,269,11.0,22.0,98,0.00,,,0.18,0.000000,,2013-03-03 10:11:00,
2013-03-03 02:42:00,28.0,27.0,-100.00,West,271,11.0,24.0,97,0.00,,,0.18,0.000000,,2013-03-03 10:42:00,
2013-03-03 02:52:00,28.0,27.0,-100.00,West,271,11.0,24.0,97,0.00,,,0.18,0.000000,,2013-03-03 10:52:00,
2013-03-03 03:01:00,28.0,27.0,-100.00,West,271,11.0,24.0,97,0.00,,,0.18,0.000000,,2013-03-03 11:01:00,
2013-03-03 03:11:00,28.0,27.0,-100.00,West,271,11.0,24.0,97,0.00,,,0.18,0.000000,,2013-03-03 11:11:00,
2013-03-03 03:32:00,26.0,25.0,-100.00,West,274,11.0,26.0,96,0.00,,,0.18,0.000000,,2013-03-03 11:32:00,
2013-03-03 03:42:00,26.0,25.0,-100.00,West,274,11.0,26.0,96,0.00,,,0.18,0.000000,,2013-03-03 11:42:00,
2013-03-03 03:52:00,26.0,25.0,-100.00,West,274,11.0,26.0,96,0.00,,,0.18,0.000000,,2013-03-03 11:52:00,
2013-03-03 04:01:00,26.0,25.0,-100.00,West,274,11.0,26.0,96,0.00,,,0.18,0.000000,,2013-03-03 12:01:00,
2013-03-03 04:11:00,26.0,25.0,-100.00,West,274,11.0,26.0,96,0.00,,,0.18,0.000000,,2013-03-03 12:11:00,
2013-03-03 04:43:00,24.0,22.0,-100.00,WNW,287,11.0,26.0,93,0.00,,,0.18,0.000000,,2013-03-03 12:43:00,
2013-03-03 04:53:00,24.0,22.0,-100.00,WNW,287,11.0,26.0,93,0.00,,,0.18,0.000000,,2013-03-03 12:53:00,
2013-03-03 05:01:00,24.0,22.0,-100.00,WNW,287,11.0,26.0,93,0.00,,,0.18,0.000000,,2013-03-03 13:01:00,
2013-03-03 05:11:00,24.0,22.0,-100.00,WNW,287,11.0,26.0,93,0.00,,,0.18,0.000000,,2013-03-03 13:11:00,
2013-03-03 05:42:00,22.0,20.0,-100.00,West,273,15.0,28.0,91,0.00,,,0.18,0.000000,,2013-03-03 13:42:00,
2013-03-03 05:52:00,22.0,20.0,-100.00,West,273,15.0,28.0,91,0.00,,,0.18,0.000000,,2013-03-03 13:52:00,
2013-03-03 06:01:00,22.0,20.0,-100.00,West,273,15.0,28.0,91,0.00,,,0.18,0.000000,,2013-03-03 14:01:00,
2013-03-03 06:11:00,22.0,20.0,-100.00,West,273,15.0,28.0,91,0.00,,,0.18,0.000000,,2013-03-03 14:11:00,
2013-03-03 06:32:00,21.0,19.0,-100.00,West,260,12.0,23.0,90,0.00,,,-99.99,0.000000,,2013-03-03 14:32:00,
2013-03-03 06:42:00,21.0,19.0,-100.00,West,260,12.0,23.0,90,0.00,,,-99.99,0.000000,,2013-03-03 14:42:00,
2013-03-03 06:52:00,21.0,19.0,-100.00,West,260,12.0,23.0,90,0.00,,,-99.99,0.000000,,2013-03-03 14:52:00,
2013-03-03 07:01:00,21.0,19.0,-100.00,West,260,12.0,23.0,90,0.00,,,-99.99,0.000000,,2013-03-03 15:01:00,
2013-03-03 07:11:00,21.0,19.0,-100.00,West,260,12.0,23.0,90,0.00,,,-99.99,0.000000,,2013-03-03 15:11:00,
2013-03-03 07:32:00,21.0,19.0,-100.00,West,271,11.0,19.0,90,0.00,,,0.18,22.000000,,2013-03-03 15:32:00,
2013-03-03 07:42:00,21.0,19.0,-100.00,West,271,11.0,19.0,90,0.00,,,0.18,22.000000,,2013-03-03 15:42:00,
2013-03-03 07:52:00,21.0,19.0,-100.00,West,271,11.0,19.0,90,0.00,,,0.18,22.000000,,2013-03-03 15:52:00,
2013-03-03 08:01:00,21.0,19.0,-100.00,West,271,11.0,19.0,90,0.00,,,0.18,22.000000,,2013-03-03 16:01:00,
2013-03-03 08:12:00,21.0,19.0,-100.00,West,271,11.0,19.0,90,0.00,,,0.18,22.000000,,2013-03-03 16:12:00,
2013-03-03 08:32:00,22.0,19.0,-100.00,West,277,9.0,20.0,87,0.00,,,0.18,150.000000,,2013-03-03 16:32:00,
2013-03-03 08:42:00,22.0,19.0,-100.00,West,277,9.0,20.0,87,0.00,,,0.18,150.000000,,2013-03-03 16:42:00,
2013-03-03 08:52:00,22.0,19.0,-100.00,West,277,9.0,20.0,87,0.00,,,0.18,150.000000,,2013-03-03 16:52:00,
2013-03-03 09:01:00,22.0,19.0,-100.00,West,277,9.0,20.0,87,0.00,,,0.18,150.000000,,2013-03-03 17:01:00,
2013-03-03 09:11:00,22.0,19.0,-100.00,West,277,9.0,20.0,87,0.00,,,0.18,150.000000,,2013-03-03 17:11:00,
2013-03-03 09:42:00,24.0,19.0,-100.00,West,261,9.0,19.0,82,0.00,,,0.18,336.000000,,2013-03-03 17:42:00,
2013-03-03 09:52:00,24.0,19.0,-100.00,West,261,9.0,19.0,82,0.00,,,0.18,336.000000,,2013-03-03 17:52:00,
2013-03-03 10:01:00,24.0,19.0,-100.00,West,261,9.0,19.0,82,0.00,,,0.18,336.000000,,2013-03-03 18:01:00,
2013-03-03 10:11:00,24.0,19.0,-100.00,West,261,9.0,19.0,82,0.00,,,0.18,336.000000,,2013-03-03 18:11:00,
2013-03-03 10:32:00,26.0,20.0,-100.00,West,270,8.0,16.0,79,0.00,,,0.18,402.000000,,2013-03-03 18:32:00,
2013-03-03 10:42:00,26.0,20.0,-100.00,West,270,8.0,16.0,79,0.00,,,0.18,402.000000,,2013-03-03 18:42:00,
2013-03-03 10:52:00,26.0,20.0,-100.00,West,270,8.0,16.0,79,0.00,,,0.18,402.000000,,2013-03-03 18:52:00,
2013-03-03 11:01:00,26.0,20.0,-100.00,West,270,8.0,16.0,79,0.00,,,0.18,402.000000,,2013-03-03 19:01:00,
2013-03-03 11:11:00,26.0,20.0,-100.00,West,270,8.0,16.0,79,0.00,,,0.18,402.000000,,2013-03-03 19:11:00,
2013-03-03 11:42:00,28.0,20.0,-100.00,West,273,8.0,17.0,70,0.00,,,0.18,543.000000,,2013-03-03 19:42:00,
2013-03-03 11:52:00,28.0,20.0,-100.00,West,273,8.0,17.0,70,0.00,,,0.18,543.000000,,2013-03-03 19:52:00,
2013-03-03 12:01:00,28.0,20.0,-100.00,West,273,8.0,17.0,70,0.00,,,0.18,543.000000,,2013-03-03 20:01:00,
2013-03-03 12:11:00,28.0,20.0,-100.00,West,273,8.0,17.0,70,0.00,,,0.18,543.000000,,2013-03-03 20:11:00,
2013-03-03 12:42:00,29.0,18.0,-100.00,West,272,9.0,19.0,64,0.07,,,0.25,625.000000,,2013-03-03 20:42:00,
2013-03-03 12:52:00,29.0,18.0,-100.00,West,272,9.0,19.0,64,0.07,,,0.25,625.000000,,2013-03-03 20:52:00,
2013-03-03 13:01:00,29.0,18.0,-100.00,West,272,9.0,19.0,64,0.07,,,0.25,625.000000,,2013-03-03 21:01:00,
2013-03-03 13:11:00,29.0,18.0,-100.00,West,272,9.0,19.0,64,0.07,,,0.25,625.000000,,2013-03-03 21:11:00,
2013-03-03 13:42:00,29.0,15.0,-100.00,WNW,288,9.0,17.0,55,0.00,,,0.25,521.000000,,2013-03-03 21:42:00,
2013-03-03 13:52:00,29.0,15.0,-100.00,WNW,288,9.0,17.0,55,0.00,,,0.25,521.000000,,2013-03-03 21:52:00,
2013-03-03 14:01:00,29.0,15.0,-100.00,WNW,288,9.0,17.0,55,0.00,,,0.25,521.000000,,2013-03-03 22:01:00,
2013-03-03 14:11:00,29.0,15.0,-100.00,WNW,288,9.0,17.0,55,0.00,,,0.25,521.000000,,2013-03-03 22:11:00,
2013-03-03 14:32:00,29.0,14.0,-100.00,West,263,10.0,19.0,52,0.00,,,0.25,499.000000,,2013-03-03 22:32:00,
2013-03-03 14:42:00,29.0,14.0,-100.00,West,263,10.0,19.0,52,0.00,,,0.25,499.000000,,2013-03-03 22:42:00,
2013-03-03 14:52:00,29.0,14.0,-100.00,West,263,10.0,19.0,52,0.00,,,0.25,499.000000,,2013-03-03 22:52:00,
2013-03-03 15:01:00,29.0,14.0,-100.00,West,263,10.0,19.0,52,0.00,,,0.25,499.000000,,2013-03-03 23:01:00,
2013-03-03 15:11:00,29.0,14.0,-100.00,West,263,10.0,19.0,52,0.00,,,0.25,499.000000,,2013-03-03 23:11:00,
2013-03-03 15:32:00,32.0,14.0,-100.00,West,275,10.0,21.0,47,0.00,,,0.25,506.000000,,2013-03-03 23:32:00,
2013-03-03 15:42:00,32.0,14.0,-100.00,West,275,10.0,21.0,47,0.00,,,0.25,506.000000,,2013-03-03 23:42:00,
2013-03-03 15:52:00,32.0,14.0,-100.00,West,275,10.0,21.0,47,0.00,,,0.25,506.000000,,2013-03-03 23:52:00,
2013-03-03 16:01:00,32.0,14.0,-100.00,West,275,10.0,21.0,47,0.00,,,0.25,506.000000,,2013-03-04 00:01:00,
2013-03-03 16:11:00,32.0,14.0,-100.00,West,275,10.0,21.0,47,0.00,,,0.25,506.000000,,2013-03-04 00:11:00,
2013-03-03 16:32:00,28.0,13.0,-100.00,West,275,8.0,18.0,52,0.00,,,0.25,278.000000,,2013-03-04 00:32:00,
2013-03-03 16:42:00,28.0,13.0,-100.00,West,275,8.0,18.0,52,0.00,,,0.25,278.000000,,2013-03-04 00:42:00,
2013-03-03 16:52:00,28.0,13.0,-100.00,West,275,8.0,18.0,52,0.00,,,0.25,278.000000,,2013-03-04 00:52:00,
2013-03-03 17:01:00,28.0,13.0,-100.00,West,275,8.0,18.0,52,0.00,,,0.25,278.000000,,2013-03-04 01:01:00,
2013-03-03 17:11:00,28.0,13.0,-100.00,West,275,8.0,18.0,52,0.00,,,0.25,278.000000,,2013-03-04 01:11:00,
2013-03-03 17:32:00,28.0,10.0,-100.00,WNW,282,8.0,20.0,46,0.00,,,0.25,188.000000,,2013-03-04 01:32:00,
2013-03-03 17:42:00,28.0,10.0,-100.00,WNW,282,8.0,20.0,46,0.00,,,0.25,188.000000,,2013-03-04 01:42:00,
2013-03-03 17:52:00,28.0,10.0,-100.00,WNW,282,8.0,20.0,46,0.00,,,0.25,188.000000,,2013-03-04 01:52:00,
2013-03-03 18:01:00,28.0,10.0,-100.00,WNW,282,8.0,20.0,46,0.00,,,0.25,188.000000,,2013-03-04 02:01:00,
2013-03-03 18:11:00,28.0,10.0,-100.00,WNW,282,8.0,20.0,46,0.00,,,0.25,188.000000,,2013-03-04 02:11:00,
2013-03-03 18:42:00,26.0,12.0,-100.00,West,270,6.0,15.0,55,0.00,,,0.25,8.000000,,2013-03-04 02:42:00,
2013-03-03 18:52:00,26.0,12.0,-100.00,West,270,6.0,15.0,55,0.00,,,0.25,8.000000,,2013-03-04 02:52:00,
2013-03-03 19:01:00,26.0,12.0,-100.00,West,270,6.0,15.0,55,0.00,,,0.25,8.000000,,2013-03-04 03:01:00,
2013-03-03 19:11:00,26.0,12.0,-100.00,West,270,6.0,15.0,55,0.00,,,0.25,8.000000,,2013-03-04 03:11:00,
2013-03-03 19:32:00,23.0,17.0,-100.00,NW,308,7.0,15.0,78,0.00,,,0.23,0.000000,,2013-03-04 03:32:00,
2013-03-03 19:42:00,23.0,17.0,-100.00,NW,308,7.0,15.0,78,0.00,,,0.23,0.000000,,2013-03-04 03:42:00,
2013-03-03 19:52:00,23.0,17.0,-100.00,NW,308,7.0,15.0,78,0.00,,,0.23,0.000000,,2013-03-04 03:52:00,
2013-03-03 20:01:00,23.0,17.0,-100.00,NW,308,7.0,15.0,78,0.00,,,0.23,0.000000,,2013-03-04 04:01:00,
2013-03-03 20:11:00,23.0,17.0,-100.00,NW,308,7.0,15.0,78,0.00,,,0.23,0.000000,,2013-03-04 04:11:00,
2013-03-03 20:32:00,22.0,18.0,-100.00,WNW,287,2.0,14.0,84,0.00,,,0.18,0.000000,,2013-03-04 04:32:00,
2013-03-03 20:42:00,22.0,18.0,-100.00,WNW,287,2.0,14.0,84,0.00,,,0.18,0.000000,,2013-03-04 04:42:00,
2013-03-03 20:52:00,22.0,18.0,-100.00,WNW,287,2.0,14.0,84,0.00,,,0.18,0.000000,,2013-03-04 04:52:00,
2013-03-03 21:01:00,22.0,18.0,-100.00,WNW,287,2.0,14.0,84,0.00,,,0.18,0.000000,,2013-03-04 05:01:00,
2013-03-03 21:11:00,22.0,18.0,-100.00,WNW,287,2.0,14.0,84,0.00,,,0.18,0.000000,,2013-03-04 05:11:00,
2013-03-03 21:42:00,22.0,18.0,-100.00,NW,318,3.0,5.0,84,0.00,,,0.12,0.000000,,2013-03-04 05:42:00,
2013-03-03 21:52:00,22.0,18.0,-100.00,NW,318,3.0,5.0,84,0.00,,,0.12,0.000000,,2013-03-04 05:52:00,
2013-03-03 22:01:00,22.0,18.0,-100.00,NW,318,3.0,5.0,84,0.00,,,0.12,0.000000,,2013-03-04 06:01:00,
2013-03-03 22:11:00,22.0,18.0,-100.00,NW,318,3.0,5.0,84,0.00,,,0.12,0.000000,,2013-03-04 06:11:00,
2013-03-03 22:32:00,21.0,17.0,-100.00,West,270,2.0,5.0,85,0.00,,,0.12,0.000000,,2013-03-04 06:32:00,
2013-03-03 22:42:00,21.0,17.0,-100.00,West,270,2.0,5.0,85,0.00,,,0.12,0.000000,,2013-03-04 06:42:00,
2013-03-03 22:52:00,21.0,17.0,-100.00,West,270,2.0,5.0,85,0.00,,,0.12,0.000000,,2013-03-04 06:52:00,
2013-03-03 23:01:00,21.0,17.0,-100.00,West,270,2.0,5.0,85,0.00,,,0.12,0.000000,,2013-03-04 07:01:00,
2013-03-03 23:11:00,21.0,17.0,-100.00,West,270,2.0,5.0,85,0.00,,,0.12,0.000000,,2013-03-04 07:11:00,
2013-03-03 23:32:00,20.0,17.0,-100.00,West,275,3.0,5.0,88,0.00,,,0.11,0.000000,,2013-03-04 07:32:00,
2013-03-03 23:42:00,20.0,17.0,-100.00,West,275,3.0,5.0,88,0.00,,,0.11,0.000000,,2013-03-04 07:42:00,
2013-03-03 23:52:00,20.0,17.0,-100.00,West,275,3.0,5.0,88,0.00,,,0.11,0.000000,,2013-03-04 07:52:00,